CZ-4 DEB

Satellite information

Favourite Embed

Satellite Type and Status

DEBRISIN ORBIT

Key statistics

Satellite CZ-4 DEB at a glance.

Uptime

9338

Days in orbit

Revolutions

≈ 14.7

Per day

Orbit

SSO

Sun Synchronous Orbit

Inclination

98.5

Latest

Satellite identification and parameters

Extended collection of information and parameters for CZ-4 DEB.

Object identification

Identified? True

Debris? True

Object name: CZ-4 DEB

International designator: 1999-057SK

Object number (NORAD): 35331

Object ID (CCSDS): 35331

Country: PEOPLES REPUBLIC OF CHINA (PRC)

Current information (Y/N): Y

RCS size: SMALL

Orbital parameters

Period: 98.011 minutes

Inclination: 98.5388 deg

SMA: 7041.665 km

Apoapsis: 721.329 km

Periapsis: 605.731 km

RAAN: 214.9061 deg

Eccentricy: 0.0082081

Argument of periapsis: 162.1838 deg

Mean anomaly: 258.2361 deg

Mean motion: 14.69229755 rev/day

Mean motion (dot): 0.00013187 rev/day2

B* drag term: 0.0021311 1/REarth

Two-line elements (TLE)

Creation date: May 5, 2025, 6:26 a.m.

Reference frame: TEME

Reference center: EARTH

Epoch: May 4, 2025, 11:23 a.m. UTC

TLE line 0: 0 CZ-4 DEB

TLE line 1: 1 35331U 99057SK 25124.47499137 .00013187 00000-0 21311-2 0 9993

TLE line 2: 2 35331 98.5388 214.9061 0082081 162.1838 258.2361 14.69229755175818

Live tracking on map

Real-time ground track for satellite CZ-4 DEB.

In-orbit conjunctions

A list of the most updated potential collisions computed for object CZ-4 DEB.

Target Orbit TCA Probability of collision Miss distance Type
CZ-6A DEB LEO 2025-02-18 03:05:45 0.0001194242 528.0 (m) DEBRIS

Associated space launch

The CBERS (China Brazil Earth Resources Satellite) or ZY 1 (Zi Yuan) satellites are designed for global coverage and include cameras to make optical observations and a data collecting system to gather data on the environment. They are unique systems due to the use of on-board sensors which combine features that are especially designed to resolve the broad range of space and time scales involved in the monitoring and preservation of the ecosystem. They are operated jointly by the China Centre for Resources Satellite Data and Application (CRESDA) and the Brazilian INPE (Instituto Nacional de Pesquisas Espaciais, National Institute of Space Research).

CZ-4 DEB was lifted into orbit during the mission ‘Long March 4B | Zi Yuan 1-1’, on board a Long March 4B space rocket.

The launch took place on Oct. 14, 1999, 3:15 a.m. from Launch Complex 7.

For more information about the launch, click the button.

Launch to space Long March 4B | Zi Yuan 1-1
Long March 4B | Zi Yuan 1-1

Agency: N/A

Status: Launch Successful

Launch date: Oct. 14, 1999, 3:15 a.m. UTC

Rocket: Long March 4B

Launch pad: Launch Complex 7

Location: Taiyuan Satellite Launch Center, People's Republic of China

...

Latest news about this satellite

There are no fresh news available about this satellite. Check back as we update our databases every day.


Newsletter sign-up

Weekly statistics, charts and insights to help you stay on top of the space industry.